Location: Auttagershofen
(48.1940°N, 10.0237°E)
Time: 09:10:49
(UTC+00:00)

Atlas Centaur 2 - Pass Details

Date: 18 January 2026
Orbit: 456 x 1249 km, 30.4° (Epoch: 16 February)

Event Time Altitude Azimuth Distance (km) Brightness Sun altitude
Exits shadow 05:19:43 - 221° (SW) 2,788 4.6 -16.9°
Reaches altitude 10° 05:21:55 10° 203° (SSW) 2,388 4.4 -16.5°
Maximum altitude 05:24:37 14° 175° (S) 2,275 4.7 -16.1°
Drops below altitude 10° 05:27:34 10° 147° (SSE) 2,661 5.5 -15.6°
Sets 05:31:59 0° 124° (SE) 3,801 7.0 -14.9°
